Moses Lake, WA

10:07 AM PST on December 12, 2017 (GMT -0800)
Grant County International

Weather History for KMWH - July, 2014

Change the Weather History Date:

Tuesday, July 29, 2014

  Actual Average Record
Temperature  
Mean Temperature 83 °F 74 °F  
Max Temperature 104 °F 91 °F 104 °F (2014)
Min Temperature 61 °F 57 °F 49 °F (1986)
Degree Days  
Heating Degree Days 0 0  
Month to date heating degree days 0 6  
Since 1 June heating degree days 24 61  
Since 1 July heating degree days 0 6  
Cooling Degree Days 18 9  
Month to date cooling degree days 373 224  
Year to date cooling degree days 525 334  
Since 1 June cooling degree days 490 309  
Growing Degree Days 32 (Base 50)    
Moisture  
Dew Point 44 °F    
Average Humidity 32    
Maximum Humidity 52    
Minimum Humidity 11    
Precipitation  
Precipitation 0.00 in 0.02 in 0.11 in (1984)
Month to date precipitation 0.08 0.39  
Year to date precipitation 3.29 5.16  
Sea Level Pressure  
Sea Level Pressure 29.95 in    
Wind  
Wind Speed 6 mph (East)    
Max Wind Speed 13 mph    
Max Gust Speed 16 mph    
Visibility 10 miles    
Events      
T = Trace of Precipitation, MM = Missing Value Source: NWS Daily Summary

Daily Weather History Graph

Daily Weather History Graph

Search for Another Location

Airport or City:

Trip Planner

Search our weather history database for the weather conditions in past years. The results will help you decide how hot, cold, wet, or windy it might be!

Date:

Astronomy

Jul. 29, 2014 Rise Set
Actual Time 5:32 AM PDT 8:34 PM PDT
Civil Twilight 4:56 AM PDT 9:10 PM PDT
Nautical Twilight 4:09 AM PDT 9:56 PM PDT
Astronomical Twilight 3:12 AM PDT 10:52 PM PDT
Moon 8:27 AM PDT (7/29) 9:32 PM PDT (7/29)
Length of Visible Light 16h 13m
Length of Day
15h 01m
Waxing Crescent, 7% of the Moon is Illuminated
Jul 29
Waxing Crescent
Aug 3
First Quarter
Aug 10
Full
Aug 17
Last Quarter
Aug 25
New

Hourly Weather History & Observations

Time (PDT) Temp. Dew Point Humidity Pressure Visibility Wind Dir Wind Speed Gust Speed Precip Events Conditions
12:52 AM 71.1 °F 45.0 °F 39% 29.94 in 10.0 mi North 5.8 mph - N/A   Clear
1:52 AM 70.0 °F 48.0 °F 46% 29.94 in 10.0 mi NE 4.6 mph - N/A   Clear
2:52 AM 66.9 °F 46.0 °F 47% 29.95 in 10.0 mi North 4.6 mph - N/A   Clear
3:52 AM 64.9 °F 45.0 °F 48% 29.96 in 10.0 mi North 3.5 mph - N/A   Clear
4:52 AM 63.0 °F 44.1 °F 50% 29.97 in 10.0 mi Calm Calm - N/A   Clear
5:52 AM 62.1 °F 44.1 °F 52% 29.99 in 10.0 mi North 4.6 mph - N/A   Clear
6:52 AM 68.0 °F 42.8 °F 40% 30.03 in 10.0 mi NNE 6.9 mph - N/A   Clear
7:52 AM 75.0 °F 42.1 °F 31% 30.00 in 10.0 mi North 5.8 mph - N/A   Partly Cloudy
8:52 AM 82.9 °F 41.0 °F 23% 30.01 in 10.0 mi NNE 5.8 mph - N/A   Clear
9:52 AM 89.1 °F 41.0 °F 19% 30.00 in 10.0 mi Variable 5.8 mph - N/A   Clear
10:52 AM 93.9 °F 39.9 °F 15% 29.99 in 10.0 mi North 6.9 mph - N/A   Clear
11:52 AM 96.1 °F 46.9 °F 19% 29.99 in 10.0 mi SW 6.9 mph - N/A   Clear
12:52 PM 98.1 °F 46.0 °F 17% 29.98 in 10.0 mi WSW 8.1 mph - N/A   Partly Cloudy
1:52 PM 100.0 °F 46.0 °F 16% 29.96 in 10.0 mi SSW 5.8 mph - N/A   Partly Cloudy
2:52 PM 100.0 °F 46.9 °F 16% 29.94 in 10.0 mi South 5.8 mph - N/A   Partly Cloudy
3:52 PM 102.9 °F 37.9 °F 11% 29.92 in 10.0 mi South 8.1 mph - N/A   Clear
4:52 PM 102.9 °F 37.9 °F 11% 29.90 in 10.0 mi SSW 8.1 mph - N/A   Clear
5:52 PM 100.9 °F 37.9 °F 11% 29.89 in 10.0 mi South 9.2 mph - N/A   Clear
6:52 PM 100.9 °F 37.0 °F 11% 29.88 in 10.0 mi SE 6.9 mph - N/A   Clear
7:52 PM 98.1 °F 43.0 °F 15% 29.88 in 10.0 mi SE 4.6 mph - N/A   Clear
8:52 PM 91.9 °F 48.0 °F 22% 29.88 in 10.0 mi South 3.5 mph - N/A   Clear
9:52 PM 90.0 °F 48.9 °F 24% 29.89 in 10.0 mi WSW 6.9 mph - N/A   Clear
10:52 PM 82.4 °F 46.4 °F 28% 29.93 in 10.0 mi NNW 4.6 mph - N/A   Clear
11:52 PM 75.0 °F 53.1 °F 46% 29.90 in 10.0 mi ESE 4.6 mph - N/A   Clear